COSMOS 1275 DEB

Satellite information

Favourite Embed

Satellite Type and Status

DEBRISIN ORBIT

Key statistics

Satellite COSMOS 1275 DEB at a glance.

Uptime

16103

Days in orbit

Revolutions

≈ 13.8

Per day

Orbit

LEO

Low Earth Orbit

Inclination

83.0

Latest

Satellite identification and parameters

Extended collection of information and parameters for COSMOS 1275 DEB.

Object identification

Identified? True

Debris? True

Object name: COSMOS 1275 DEB

International designator: 1981-053PB

Object number (NORAD): 39965

Object ID (CCSDS): 39965

Country: COMMONWEALTH OF INDEPENDENT STATES (CIS)

Current information (Y/N): Y

RCS size: SMALL

Orbital parameters

Period: 104.053 minutes

Inclination: 82.9671 deg

SMA: 7328.208 km

Apoapsis: 979.921 km

Periapsis: 920.224 km

RAAN: 153.8987 deg

Eccentricy: 0.0040731

Argument of periapsis: 250.2214 deg

Mean anomaly: 138.7189 deg

Mean motion: 13.83904492 rev/day

Mean motion (dot): 0.00000546 rev/day2

B* drag term: 0.00047556 1/REarth

Two-line elements (TLE)

Creation date: July 3, 2025, 10:16 p.m.

Reference frame: TEME

Reference center: EARTH

Epoch: July 3, 2025, 9:18 p.m. UTC

TLE line 0: 0 COSMOS 1275 DEB

TLE line 1: 1 39965U 81053PB 25184.88754903 .00000546 00000-0 47556-3 0 9998

TLE line 2: 2 39965 82.9671 153.8987 0040731 250.2214 138.7189 13.83904492162244

Live tracking on map

Real-time ground track for satellite COSMOS 1275 DEB.

In-orbit conjunctions

A list of the most updated potential collisions computed for object COSMOS 1275 DEB.

Target Orbit TCA Probability of collision Miss distance Type
DELTA 1 DEB SSO 2025-01-07 06:32:24 0.000222472 65.0 (m) DEBRIS

Associated space launch

Navigation satellite providing location information for the Tsiklon-B navigation system

COSMOS 1275 DEB was lifted into orbit during the mission ‘Kosmos-3M | Parus 27’, on board a Kosmos-3M space rocket.

The launch took place on June 4, 1981, 3:41 p.m. from 132/2.

For more information about the launch, click the button.

Launch to space Kosmos-3M | Parus 27
Kosmos-3M | Parus 27

Agency: N/A

Status: Launch Successful

Launch date: June 4, 1981, 3:41 p.m. UTC

Rocket: Kosmos-3M

Launch pad: 132/2

Location: Plesetsk Cosmodrome, Russian Federation

...

Latest news about this satellite

There are no fresh news available about this satellite. Check back as we update our databases every day.


Newsletter sign-up

Weekly statistics, charts and insights to help you stay on top of the space industry.